Regional Weather Roundup
Issued by NWS

Home | Current Version | Previous Version | Graphics & Text | Print | Product List | Glossary On
Versions: 1 2 3 4 5 6 7 8 9 10 11 12 13 14 15 16 17 18 19 20 21 22 23 24 25 26 27 28 29 30 31 32 33 34 35 36 37 38 39 40 41 42 43 44 45 46 47 48 49 50
612
ASUS43 KFSD 072002
RWRSD

WEATHER ROUNDUP FOR SOUTH DAKOTA
NATIONAL WEATHER SERVICE SIOUX FALLS SD
200 PM CST SUN FEB 07 2016

NOTE: "FAIR" INDICATES FEW OR NO CLOUDS BELOW 12,000 FEET WITH NO
SIGNIFICANT WEATHER AND/OR OBSTRUCTIONS TO VISIBILITY.


SDZ001>005-009-010-012>017-072100-
NORTHWEST AND NORTH CENTRAL SOUTH DAKOTA

CITY           SKY/WX    TMP DP  RH WIND       PRES   REMARKS
BUFFALO          N/A     39  11  31 NW49G69   30.04S
FAITH            N/A     37  14  38 NW47G59   30.04R
MOBRIDGE       CLOUDY    35  22  58 NW39G54   29.92S WCI  20
$$

SDZ012>016-024>037-041>051-057-063-072>074-072100-
SOUTHWEST AND SOUTH CENTRAL SOUTH DAKOTA

CITY           SKY/WX    TMP DP  RH WIND       PRES   REMARKS
RAPID CTY ARPT SUNNY     39   7  26 NW52G64   30.15S
PIERRE         CLOUDY    38  21  50 NW35G49   29.97R
CUSTER         MOSUNNY   28   2  32 NW25G48   30.13F WCI  13
ELLSWORTH AFB  SUNNY     39   9  28 NW45G60   30.13
PHILIP           N/A     41  19  41 NW44G59   30.04S
PINE RIDGE     MOSUNNY   39   5  24 NW30G47   30.17F
WINNER         FLURRIES  38  21  50 NW35G59   29.99F
$$

SDZ004>011-016>023-039-040-072100-
NORTHEAST SOUTH DAKOTA

CITY           SKY/WX    TMP DP  RH WIND       PRES   REMARKS
ABERDEEN       CLOUDY    32  20  61 NW37G47   29.86R WCI  16
WATERTOWN      CLOUDY    32  24  72 NW32G43   29.75R WCI  17
BROOKINGS      FLURRIES  32  27  81 NW25G38   29.75R WCI  19
SISSETON         N/A     32  27  81 N32G43    29.73R WCI  17
$$

SDZ017-020-022-023-036>040-048>070-072100-
SOUTHEAST SOUTH DAKOTA

CITY           SKY/WX    TMP DP  RH WIND       PRES   REMARKS
SIOUX FALLS    FLURRIES  35  29  78 NW21G35   29.81S WCI  24
HURON          CLOUDY    33  25  72 NW35G47   29.86R WCI  18
MITCHELL       LGT SNOW  33  29  85 NW35G46   29.90R FOG     WCI  18
YANKTON        CLOUDY   N/A N/A N/A W32G40    29.89F
$$

ABBREVIATIONS USED IN REMARKS
   TC - TEMPERATURE IN CELSIUS
  WCI - WIND CHILL INDEX
   HX - HEAT INDEX
  VSB - VISIBILITY





USA.gov is the U.S. government's official web portal to all federal, state and local government web resources and services.